[[{"header":{"parameterUnit":"m.s-1","parameterCategory":1,"la1":30.2991,"la2":30.254,"lo1":-89.0895,"lo2":-89.0444,"dy":0.0017,"dx":0.0017,"nx":28,"ny":28,"refTime":"2024-02-06T09:00:00:Z","depth":0,"parameterNumber":2,"parameterNumberName":"U-component_of_WINDS"},"data":[0,0,0,0,0,0,0,0,0,0,0,0,0,0,0,0,0,0,0,0,0,0,0,0,0,0,0,0,0,0,0,0,0,0,0,0,0,0,0,0,0,0,0,0,0,0,0,0,0,0,0,0,0,0,0,0,0,0,-4.8158,-4.8159,0,-4.825,-4.8251,-4.8252,-4.8222,-4.822,-4.8218,-4.8216,-4.831,-4.8315,-4.8319,0,0,0,0,0,0,0,0,0,0,0,0,0,-4.7956,-4.796,-4.8157,-4.8159,-4.816,-4.825,-4.8251,-4.8253,-4.8223,-4.822,-4.8218,-4.8215,-4.8309,-4.8314,-4.8319,0,0,0,0,0,0,0,0,0,0,0,0,0,-4.8046,-4.7962,-4.8157,-4.8156,-4.8156,-4.825,-4.8251,-4.8253,-4.8223,-4.822,-4.8217,-4.8214,-4.8307,-4.8314,-4.832,-4.842,0,0,-4.834,-4.8343,0,0,0,0,0,0,0,0,-4.8041,-4.8053,-4.8155,-4.8156,-4.8157,-4.8222,-4.8215,-4.8309,-4.8224,-4.8198,-4.8216,-4.8213,-4.8283,-4.8292,-4.8315,-4.8425,-4.8429,-4.8341,-4.8345,-4.8347,-4.8349,0,0,0,0,0,0,0,-4.8035,-4.8049,-4.8194,-4.8156,-4.8158,-4.8151,-4.8161,-4.8233,-4.8256,-4.82,-4.8198,-4.8209,-4.8283,-4.8309,-4.8317,-4.843,-4.834,-4.8346,-4.835,-4.8353,-4.8629,-4.8632,0,0,0,0,0,0,-4.8028,-4.8044,-4.8191,-4.8197,-4.809,-4.8157,-4.8168,-4.8204,-4.8255,-4.826,-4.8212,-4.8208,-4.83,-4.831,-4.8321,-4.8442,-4.8347,-4.8353,-4.8357,-4.8625,-4.863,-4.8633,0,0,0,0,0,0,-4.8024,-4.8041,-4.8187,-4.812,-4.8138,-4.8164,-4.8205,-4.8207,-4.8233,-4.8264,-4.8268,-4.8234,-4.8298,-4.8311,-4.8396,-4.8444,-4.8356,-4.8362,-4.8621,-4.8627,-4.8631,-4.8684,0,0,0,0,0,0,-4.8018,-4.804,-4.8077,-4.8121,-4.8142,-4.8261,-4.8208,-4.8211,-4.8245,-4.824,-4.8286,-4.8291,-4.8296,-4.8387,-4.8403,-4.8452,-4.8367,-4.8617,-4.8624,-4.863,-4.8678,-4.869,-4.8701,0,0,0,0,0,-4.8011,-4.8087,-4.8079,-4.8097,-4.8189,-4.8263,-4.8275,-4.828,-4.8249,-4.8287,-4.8308,-4.8289,-4.8438,-4.8396,-4.8414,-4.8465,-4.8614,-4.8622,-4.8629,-4.8673,-4.8688,-4.87,0,0,0,0,0,0,-4.8047,-4.8093,-4.8084,-4.8177,-4.8217,-4.8258,-4.8306,-4.8296,-4.8345,-4.8338,-4.8343,-4.8354,-4.8441,-4.8462,-4.8415,-4.8566,-4.8521,-4.8533,-4.8548,-4.8563,-4.8574,-4.8565,-4.8373,0,0,0,0,0,-4.8066,-4.8122,-4.816,-4.8239,-4.8259,-4.828,-4.8312,-4.8313,-4.8354,-4.837,-4.8397,-4.8438,-4.8494,-4.853,-4.8583,-4.8683,-4.8693,-4.8728,-4.8739,-4.8748,-4.8757,-4.8812,-4.8828,-4.8658,-4.8658,-4.8658,0,0,-4.8105,-4.8137,-4.8172,-4.8247,-4.8277,-4.8336,-4.8294,-4.8357,-4.8401,-4.838,-4.8461,-4.8483,-4.8529,-4.8622,-4.8665,-4.8643,-4.8807,-4.8758,-4.8765,-4.8769,-4.8822,-4.8838,-4.8852,-4.8664,-4.8663,-4.8662,0,0,-4.8205,-4.8236,-4.8305,-4.8338,-4.8386,-4.84,-4.8417,-4.8462,-4.8475,-4.8558,-4.8544,-4.8598,-4.8693,-4.8727,-4.8757,-4.8877,-4.8861,-4.8894,-4.8952,-4.9006,-4.9019,-4.9031,-4.9073,-4.9088,-4.8904,-4.8904,-4.8904,0,-4.8247,-4.8335,-4.8342,-4.8407,-4.8441,-4.8428,-4.8499,-4.853,-4.8593,-4.8617,-4.8593,-4.8715,-4.8745,-4.8846,-4.8875,-4.8901,-4.892,-4.8886,-4.9017,-4.9029,-4.904,-4.908,-4.9096,-4.8907,-4.8907,-4.8907,-4.8906,0,-4.8384,-4.8446,-4.8496,-4.8558,-4.8598,-4.8666,-4.8685,-4.8725,-4.8724,-4.8742,-4.8827,-4.8864,-4.8925,-4.895,-4.8949,-4.9052,-4.9037,-4.9015,-4.8969,-4.906,-4.9097,-4.9113,-4.8912,-4.8911,-4.891,-4.8909,0,0,-4.8503,-4.8573,-4.8591,-4.862,-4.8675,-4.8722,-4.8792,-4.8853,-4.8886,-4.8933,-4.899,-4.9074,-4.9055,-4.9089,-4.9094,-4.9142,-4.9234,-4.9114,-4.9115,-4.9133,-4.935,-4.9364,-4.9381,-4.9227,-4.923,-4.9232,-4.9345,0,-4.8607,-4.8727,-4.8738,-4.8846,-4.8904,-4.8895,-4.8956,-4.8996,-4.9016,-4.9068,-4.909,-4.9149,-4.912,-4.9141,-4.9189,-4.9213,-4.9277,-4.9205,-4.9279,-4.9282,-4.9264,-4.9401,-4.9415,-4.952,-4.936,-4.9363,-4.9365,0,-4.8742,-4.8793,-4.8907,-4.8957,-4.8981,-4.9035,-4.9093,-4.9144,-4.9191,-4.9202,-4.9243,-4.9242,-4.9314,-4.9269,-4.9369,-4.932,-4.9353,-4.937,-4.9374,-4.9378,-4.9326,-4.9406,-4.9553,-4.9568,-4.9388,-4.9386,-4.9385,0,-4.8816,-4.8914,-4.8995,-4.9021,-4.9081,-4.9119,-4.9146,-4.919,-4.9227,-4.9279,-4.9303,-4.9363,-4.9395,-4.9442,-4.9458,-4.9424,-4.9557,-4.9514,-4.9568,-4.9568,-4.9592,-4.959,-4.9744,-4.9619,-4.9619,-4.9618,-4.9618,0,-4.8928,-4.8998,-4.9029,-4.9078,-4.9158,-4.9172,-4.925,-4.9275,-4.9316,-4.9371,-4.9369,-4.942,-4.944,-4.9495,-4.9509,-4.959,-4.9605,-4.9616,-4.9618,-4.9614,-4.9612,-4.9632,-4.9624,-4.9623,-4.9622,-4.9621,-4.962,0,-4.9022,-4.9046,-4.9133,-4.9185,-4.92,-4.9255,-4.93,-4.9348,-4.937,-4.944,-4.9457,-4.949,-4.9556,-4.9578,-4.9657,-4.9666,-4.976,-4.9757,-4.9744,-4.9743,-4.9796,-4.979,-4.9965,-4.9988,-4.985,-4.9852,-4.9853,0,-4.909,-4.9143,-4.9202,-4.9239,-4.9268,-4.9328,-4.9366,-4.9384,-4.9424,-4.9485,-4.9527,-4.9593,-4.9645,-4.9752,-4.9783,-4.9845,-4.9842,-4.9899,-4.985,-4.9846,-4.984,-4.9836,-4.9841,-4.9907,-4.9908,-4.9909,-4.991,0,-4.9208,-4.9218,-4.9274,-4.9335,-4.9381,-4.943,-4.9477,-4.9508,-4.9534,-4.958,-4.9648,-4.9689,-4.9772,-4.9837,-4.9901,-4.993,-4.9924,-4.9927,-4.9942,-4.9936,-4.9926,-4.9931,-4.9765,-4.9921,-4.992,-4.9919,-4.9918,-4.9918,-4.9289,-4.9337,-4.9386,-4.9449,-4.9488,-4.9533,-4.9582,-4.9611,-4.9668,-4.9736,-4.9745,-4.9818,-4.9868,-4.9953,-4.9986,-5.0044,-5.0027,-5.005,-5.0055,-5.006,-5.0063,-4.992,-5.0056,-5.0056,-5.0055,-5.0055,-5.0055,0,-4.9405,-4.9438,-4.9496,-4.9563,-4.9614,-4.9608,-4.9661,-4.9703,-4.9767,-4.9815,-4.9868,-4.9948,-5.0013,-5.0051,-5.0116,-5.0156,-5.0155,-5.0172,-5.0167,-5.0174,-5.0075,-5.0054,-5.0172,-5.0172,-5.0172,-5.0171,-5.0171,-5.0171,-4.9471,-4.9552,-4.9569,-4.9671,-4.9703,-4.9775,-4.9806,-4.9849,-4.9887,-4.9975,-5.003,-5.0055,-5.01,-5.0169,-5.0229,-5.0239,-5.0262,-5.028,-5.0288,-5.0193,-5.0181,-5.0169,-5.015,-5.0286,-5.0286,-5.0383,-5.0384,-5.0384]},{"header":{"parameterUnit":"m.s-1","parameterCategory":1,"la1":30.2991,"la2":30.254,"lo1":-89.0895,"lo2":-89.0444,"dy":0.0017,"dx":0.0017,"nx":28,"ny":28,"refTime":"2024-02-06T09:00:00:Z","depth":0,"parameterNumber":3,"parameterNumberName":"V-component_of_WINDS"},"data":[0,0,0,0,0,0,0,0,0,0,0,0,0,0,0,0,0,0,0,0,0,0,0,0,0,0,0,0,0,0,0,0,0,0,0,0,0,0,0,0,0,0,0,0,0,0,0,0,0,0,0,0,0,0,0,0,0,0,2.2823,2.2823,0,2.289,2.2891,2.2892,2.297,2.2971,2.2972,2.2974,2.3037,2.3038,2.3039,0,0,0,0,0,0,0,0,0,0,0,0,0,2.2758,2.2759,2.2823,2.2824,2.2824,2.289,2.2891,2.2892,2.297,2.2971,2.2973,2.2974,2.3037,2.3038,2.3039,0,0,0,0,0,0,0,0,0,0,0,0,0,2.2802,2.2759,2.2823,2.2871,2.2876,2.289,2.2891,2.2892,2.297,2.2971,2.2973,2.2975,2.3037,2.3038,2.3039,2.3008,0,0,2.3041,2.3042,0,0,0,0,0,0,0,0,2.2799,2.2804,2.2863,2.2868,2.2874,2.2924,2.2892,2.2931,2.2969,2.2934,2.2974,2.2976,2.2998,2.3002,2.3011,2.3011,2.3014,2.3041,2.3042,2.3042,2.3043,0,0,0,0,0,0,0,2.2796,2.2802,2.2849,2.2864,2.287,2.2889,2.2897,2.29,2.2955,2.2937,2.2943,2.295,2.3001,2.301,2.3013,2.3015,2.3041,2.3042,2.3043,2.3043,2.2998,2.2996,0,0,0,0,0,0,2.2786,2.2799,2.2847,2.2851,2.284,2.2889,2.2898,2.2906,2.2955,2.2964,2.2949,2.2954,2.3007,2.3012,2.3015,2.2985,2.3042,2.3043,2.3044,2.2999,2.2997,2.2996,0,0,0,0,0,0,2.2785,2.279,2.2844,2.2827,2.2835,2.2888,2.2896,2.2906,2.2915,2.2964,2.2974,2.2948,2.3009,2.3014,2.3011,2.2988,2.3044,2.3044,2.3002,2.2999,2.2996,2.2923,0,0,0,0,0,0,2.2783,2.2789,2.2778,2.2826,2.2836,2.2839,2.2895,2.2906,2.2917,2.2924,2.2965,2.2974,2.3011,2.3009,2.3012,2.2991,2.3045,2.3004,2.3,2.2997,2.2928,2.2919,2.2911,0,0,0,0,0,2.278,2.2753,2.2777,2.2783,2.2824,2.2838,2.2843,2.2888,2.2915,2.2905,2.2937,2.2973,2.2991,2.3008,2.3012,2.299,2.3005,2.3001,2.2998,2.2932,2.2921,2.2911,0,0,0,0,0,0,2.2699,2.276,2.2788,2.2776,2.2801,2.2851,2.2839,2.2874,2.289,2.2896,2.2949,2.2958,2.2948,2.2969,2.2987,2.2966,2.3003,2.3,2.2952,2.2942,2.2933,2.2928,2.3046,0,0,0,0,0,2.268,2.2687,2.274,2.2724,2.2736,2.2785,2.2793,2.2826,2.2853,2.2864,2.2896,2.292,2.2932,2.2938,2.2951,2.2932,2.2943,2.2919,2.291,2.2903,2.2899,2.2893,2.2884,2.2983,2.2983,2.2983,0,0,2.264,2.2675,2.2676,2.2709,2.2733,2.2739,2.2794,2.2797,2.2802,2.2864,2.2864,2.2888,2.2919,2.2908,2.2905,2.2925,2.2875,2.2898,2.2892,2.2892,2.2888,2.2879,2.2871,2.298,2.2981,2.2981,0,0,2.2571,2.2598,2.2589,2.2613,2.2649,2.2682,2.268,2.2726,2.2745,2.2746,2.2794,2.28,2.2818,2.2839,2.2852,2.2795,2.2829,2.2797,2.2751,2.2745,2.2737,2.273,2.2711,2.2704,2.2794,2.2793,2.2793,0,2.2517,2.2529,2.2579,2.2582,2.2595,2.2654,2.2646,2.2666,2.2703,2.2712,2.2734,2.2761,2.2785,2.2782,2.2768,2.2776,2.2776,2.2793,2.2734,2.2728,2.2723,2.2705,2.2698,2.2789,2.279,2.279,2.2791,0,2.2461,2.2469,2.2458,2.2496,2.2509,2.2505,2.2555,2.2561,2.2593,2.2624,2.2626,2.2658,2.268,2.2682,2.2711,2.2683,2.2695,2.2725,2.2764,2.2709,2.2693,2.2687,2.2784,2.2785,2.2786,2.2787,0,0,2.2341,2.241,2.2405,2.2425,2.247,2.2477,2.2477,2.2501,2.2506,2.2531,2.2532,2.2548,2.2578,2.2592,2.2625,2.2619,2.2574,2.2651,2.2652,2.2636,2.2547,2.2524,2.2516,2.2598,2.2597,2.2596,2.2545,0,2.2282,2.2287,2.2334,2.2325,2.2334,2.2392,2.2392,2.2419,2.2449,2.246,2.2492,2.2504,2.2541,2.2551,2.2547,2.258,2.2557,2.2585,2.2599,2.2599,2.259,2.2507,2.2483,2.2433,2.2539,2.2538,2.2537,0,2.2212,2.2236,2.2229,2.2278,2.2283,2.2283,2.231,2.232,2.2353,2.2375,2.2394,2.2432,2.2435,2.2473,2.2478,2.2496,2.2505,2.2522,2.2521,2.2524,2.2565,2.2509,2.2418,2.2411,2.2528,2.2528,2.2529,0,2.2127,2.2157,2.2158,2.2172,2.2229,2.2227,2.2251,2.2286,2.2298,2.2322,2.2331,2.2353,2.2365,2.2381,2.2425,2.2448,2.2426,2.2466,2.2444,2.2443,2.2437,2.2436,2.2347,2.2441,2.2441,2.2441,2.2441,0,2.2056,2.205,2.2121,2.2121,2.2117,2.2171,2.2164,2.2193,2.2224,2.2231,2.2281,2.2286,2.2343,2.2354,2.2388,2.2389,2.2393,2.2411,2.242,2.2407,2.2405,2.2414,2.2418,2.2439,2.244,2.244,2.2441,0,2.196,2.2008,2.2013,2.2067,2.2081,2.2075,2.2121,2.2124,2.2157,2.2165,2.217,2.2223,2.2239,2.2285,2.2311,2.2334,2.2325,2.2342,2.2315,2.2321,2.2297,2.2299,2.221,2.2201,2.23,2.2299,2.2298,0,2.1912,2.1909,2.1964,2.1974,2.1996,2.2009,2.2023,2.2077,2.2089,2.2129,2.2126,2.2147,2.2167,2.219,2.223,2.2252,2.227,2.2237,2.2273,2.2261,2.2271,2.2271,2.2271,2.2229,2.2228,2.2227,2.2226,0,2.1822,2.1846,2.1865,2.1893,2.1909,2.1933,2.196,2.1964,2.2024,2.2035,2.2054,2.207,2.2099,2.212,2.2148,2.2171,2.2208,2.2214,2.2211,2.2197,2.2182,2.2192,2.2294,2.2216,2.2217,2.2218,2.2218,2.2219,2.1749,2.1751,2.1791,2.1811,2.1837,2.1862,2.1868,2.1904,2.1921,2.1951,2.1981,2.1997,2.2032,2.2075,2.2096,2.2109,2.2128,2.2122,2.2121,2.2119,2.2113,2.218,2.2114,2.2114,2.2114,2.2114,2.2115,0,2.1663,2.1693,2.1711,2.1748,2.1764,2.1801,2.1833,2.1843,2.1857,2.1888,2.1908,2.193,2.1951,2.1994,2.2018,2.202,2.2038,2.2025,2.2025,2.2031,2.2094,2.2095,2.201,2.201,2.201,2.201,2.201,2.201,2.162,2.1625,2.1655,2.1674,2.1703,2.1721,2.1736,2.1759,2.1785,2.1808,2.1827,2.1855,2.1891,2.1919,2.194,2.1952,2.1959,2.194,2.1958,2.2016,2.2026,2.2035,2.2037,2.1941,2.1941,2.1894,2.1893,2.1893]}]]